カタログに戻る

COSMOS 2251 DEB

運用中LEO
NORAD 34114·DEBRIS·🇷🇺 Russia

打ち上げ Jun 16, 1993 から Plesetsk Cosmodrome

Loading…

次のパス (今後24時間)

TLE

最新Source: Space-Track

元期: Sep 14, 2026, 00:22 UTC

1 34114U 93036KK  26257.01536716  .00004509  00000-0  91533-3 0  9997
2 34114  74.0550 240.0063 0042572 174.3606 242.6918 14.60888139918163

AllMySatでCOSMOS 2251 DEBをリアルタイム追跡

Download on the App Store